GFSGL_sfc_dewp_021.txt.gz
Dewpoint
61 59 59 59 60 59 60 60 59 59 60 59 60 61 61 61 61 60 59 60 61 61 60 59 59 59 59 60 60 60 58 57 55 57 59 60 60 60 61 60 60 60 59
61 60 60 60 60 60 59 60 58 56 56 57 59 61 61 62 60 60 60 61 60 59 60 59 58 60 60 61 61 58 58 58 56 55 58 59 59 60 60 59 59 60 58
60 59 60 60 60 60 59 60 58 57 59 57 58 59 60 61 61 60 60 61 61 59 59 59 59 60 60 61 60 59 59 59 58 56 56 59 59 59 59 59 58 57 58
58 58 60 60 60 60 59 59 59 58 57 58 59 60 62 60 61 62 62 62 61 60 59 60 60 61 61 60 60 59 59 58 57 57 57 57 58 58 58 57 56 57 57
58 59 60 60 61 60 58 57 58 58 56 58 59 60 59 58 57 61 62 61 60 60 60 60 61 61 60 59 60 59 58 58 57 56 56 57 57 57 56 57 56 57 58
57 59 61 61 60 59 59 60 56 57 58 57 59 59 57 56 49 52 58 61 61 61 60 59 59 58 56 55 55 56 57 58 57 56 56 56 56 56 57 56 56 55 53
57 59 60 60 59 59 58 55 57 58 60 59 60 58 56 54 47 48 52 61 61 60 61 61 60 58 57 57 53 53 53 52 55 56 56 56 55 56 55 55 55 53 54
56 57 57 57 57 57 58 58 59 58 58 59 60 58 56 54 48 47 53 61 60 60 61 61 60 59 58 58 58 58 58 58 58 58 57 57 56 55 55 53 52 54 55
54 53 55 55 56 58 59 59 59 59 59 58 60 58 56 54 48 46 58 61 60 60 61 61 60 59 50 51 58 58 58 57 52 51 50 49 47 49 51 52 55 52 52
53 53 54 55 57 57 59 59 59 60 60 62 61 59 55 55 49 46 57 62 60 59 59 58 53 56 48 50 58 58 57 57 57 55 54 51 51 50 51 53 55 52 54
53 54 55 57 59 60 60 59 60 61 61 60 60 59 58 56 53 46 52 61 60 59 58 58 56 48 47 48 53 58 57 57 54 56 54 53 52 52 53 54 57 56 54
53 55 58 59 59 60 59 60 61 60 59 59 59 59 59 57 52 47 47 55 56 59 58 57 52 45 46 47 54 45 48 53 57 57 57 55 53 53 55 57 58 59 57
53 57 58 57 58 59 59 59 60 60 60 59 59 59 57 57 54 48 48 52 52 58 57 52 45 46 45 46 45 46 50 57 56 56 55 56 57 57 57 58 58 58 56
57 56 58 58 58 59 58 59 59 60 60 60 59 58 57 57 57 57 54 54 50 51 47 47 49 52 51 52 51 53 58 58 58 57 56 57 58 57 56 58 56 55 51
56 56 56 58 58 58 55 54 56 56 59 61 59 59 58 57 58 55 56 57 57 53 53 54 54 55 55 55 56 57 58 58 58 58 57 58 58 56 57 58 56 53 50
57 56 56 58 59 58 52 51 43 43 46 50 51 56 58 53 48 48 50 48 47 48 56 56 55 54 56 57 56 56 57 56 57 57 57 57 57 55 57 59 55 53 49
55 56 56 55 57 56 55 53 49 49 44 41 45 49 50 49 46 47 45 45 45 49 56 56 56 53 54 55 55 56 56 56 56 56 55 55 55 57 55 58 55 53 50
53 49 53 54 54 55 55 55 53 50 49 48 46 48 45 45 46 44 42 47 53 52 57 56 56 56 53 52 52 52 53 53 52 53 55 55 56 57 55 55 55 52 50
52 52 52 51 53 52 55 55 55 53 52 51 49 48 43 41 42 42 44 56 56 56 56 56 56 56 55 54 53 53 52 53 52 52 53 54 53 53 52 52 52 47 46
50 47 49 51 50 52 52 54 54 54 53 51 49 52 48 48 51 51 51 56 56 56 56 56 55 55 55 54 55 53 53 52 52 52 51 53 54 52 51 50 51 50 48
50 48 47 51 49 48 49 50 52 54 54 53 50 50 45 54 54 54 54 55 56 56 56 55 54 52 49 52 53 53 53 53 52 52 52 51 53 53 52 51 51 50 49
50 49 49 48 48 47 47 46 48 49 54 53 52 49 40 54 54 55 55 55 56 55 51 51 50 49 47 46 49 51 50 49 49 51 52 52 51 52 53 52 52 51 45
48 50 48 49 48 44 46 46 45 48 47 51 53 51 46 50 49 50 52 53 54 53 52 52 51 49 48 47 48 49 50 49 48 49 48 49 51 52 52 51 51 50 43
54 48 49 48 47 46 46 48 45 43 46 46 48 50 49 48 49 49 50 50 50 50 51 50 50 50 49 51 50 49 49 51 52 51 50 49 48 46 50 50 50 50 44
56 56 54 50 47 47 46 47 47 44 44 45 46 48 49 50 50 50 51 51 51 51 50 50 49 48 48 47 48 51 47 37 46 45 51 51 50 50 48 48 49 48 39
51 57 57 55 52 48 47 46 48 46 44 43 44 47 49 50 50 51 51 51 50 51 52 52 51 50 50 50 49 45 39 37 40 38 47 50 50 50 50 49 48 45 38

GFSGL_sfc_dewp_024.txt.gz
Dewpoint
59 59 60 59 59 59 58 59 59 58 59 59 59 60 60 60 59 59 60 60 61 60 59 58 58 58 58 59 60 59 57 56 56 57 59 60 61 61 61 61 61 59 58
58 58 59 59 59 59 59 59 58 57 58 58 58 60 60 61 60 59 60 61 59 59 59 58 57 60 59 59 57 57 57 57 56 56 58 59 58 59 59 59 59 59 58
59 58 59 59 59 58 59 59 56 55 56 58 57 59 60 60 60 60 61 61 59 58 59 58 57 59 60 59 59 58 58 58 58 57 57 59 59 58 57 58 57 58 59
59 59 59 59 59 58 59 58 57 56 57 57 59 61 61 60 61 62 62 61 59 59 58 59 58 60 60 59 59 58 58 57 57 57 57 57 57 57 56 55 54 57 56
57 59 59 60 60 58 58 57 59 58 58 59 60 59 58 58 57 59 61 60 59 59 59 61 61 60 59 59 59 58 58 57 57 56 56 56 56 56 55 56 54 55 55
57 59 60 60 59 58 57 56 57 56 57 59 59 58 56 56 48 50 58 59 60 59 58 59 59 58 56 55 55 55 57 57 57 56 56 55 56 56 56 55 55 53 52
58 60 60 59 59 58 58 57 55 58 58 60 57 55 55 54 47 47 53 60 59 59 60 60 59 58 57 56 53 52 53 52 54 56 56 56 56 56 56 56 55 54 53
58 60 59 57 57 57 55 55 57 57 58 58 56 55 54 54 47 47 52 59 59 60 60 59 58 58 57 58 58 57 57 57 58 58 57 57 57 57 56 55 54 55 55
57 58 58 56 56 57 57 57 57 57 57 57 57 55 55 54 46 48 56 59 59 60 61 59 59 58 49 50 58 57 57 55 51 49 49 48 47 48 52 54 54 53 52
55 56 56 56 57 58 58 57 57 57 59 60 58 56 53 55 46 46 56 60 59 60 60 57 52 54 46 49 57 57 56 56 55 54 54 51 51 48 48 54 53 52 52
54 55 55 56 57 57 58 58 59 59 59 60 57 56 55 55 52 47 51 59 59 59 59 58 55 45 46 47 52 57 55 55 52 54 53 54 53 53 53 55 53 54 53
53 54 55 58 58 59 58 59 59 59 58 57 57 56 56 55 49 46 48 52 54 59 58 57 52 44 45 46 52 44 46 52 55 53 53 52 52 52 52 54 55 55 56
54 56 57 58 59 58 58 59 58 57 57 57 57 57 55 55 55 46 46 47 50 56 57 53 45 44 43 46 44 45 49 56 56 53 52 52 52 52 53 55 56 56 54
55 57 57 58 58 58 59 59 59 58 57 58 57 56 55 55 56 55 54 53 49 51 49 51 49 49 48 49 50 52 57 56 55 55 55 54 55 54 53 55 55 53 53
56 57 57 57 57 57 55 56 59 59 58 59 58 57 56 55 56 52 54 56 55 51 51 54 56 57 55 55 56 56 56 56 56 55 55 55 56 56 55 55 55 52 52
55 57 57 56 57 56 52 49 43 44 43 49 51 55 57 52 46 47 48 46 44 45 54 55 53 55 56 56 55 55 55 55 56 56 55 56 56 56 55 56 55 53 51
54 56 57 56 57 55 52 50 48 47 42 43 46 48 50 50 45 44 45 43 43 49 55 54 55 56 56 56 56 56 56 57 56 58 57 57 57 56 52 57 57 54 52
55 50 57 58 57 56 53 50 48 48 51 52 45 46 44 44 44 43 43 46 52 51 55 55 54 54 56 56 56 56 56 56 56 57 57 56 57 56 55 55 57 56 55
56 55 55 56 57 55 55 52 49 48 48 50 50 47 42 40 41 41 44 55 54 55 55 56 56 55 54 55 55 55 55 55 54 55 55 56 56 56 56 56 56 50 50
54 50 51 54 54 54 55 55 53 50 50 49 52 55 47 49 51 50 50 56 56 55 56 56 56 56 56 54 53 53 53 52 52 52 52 55 55 55 55 55 55 55 53
52 51 50 52 52 53 53 55 55 53 52 49 50 52 45 55 55 55 55 54 57 57 57 57 56 56 55 55 55 53 53 53 52 52 52 52 54 54 54 54 54 53 52
50 50 51 51 50 50 52 51 54 55 53 52 49 49 39 54 55 55 55 55 56 57 57 57 56 56 55 54 53 54 54 54 53 53 52 52 51 53 53 52 51 51 50
51 50 50 50 50 47 47 50 49 53 54 54 52 50 48 53 55 55 55 55 56 57 57 55 56 55 54 53 51 51 51 52 53 53 53 52 52 52 51 52 52 51 48
56 53 50 50 49 48 48 48 47 44 50 54 54 53 49 51 54 54 55 55 55 56 56 56 54 53 53 51 50 49 48 48 51 51 51 51 52 50 52 51 51 51 50
48 56 57 52 49 48 48 47 48 47 46 48 52 54 52 50 51 52 52 52 53 53 54 54 54 53 52 51 51 50 46 38 47 45 50 49 48 48 50 50 50 49 43
50 52 55 57 57 53 49 48 48 48 46 45 46 50 52 52 51 51 50 50 50 50 50 51 51 51 50 49 49 46 41 39 41 38 49 51 50 49 48 47 48 48 44

GFSGL_sfc_dewp_030.txt.gz
Dewpoint
59 59 59 59 59 59 59 59 59 59 59 59 59 60 60 61 60 60 60 60 60 60 60 59 59 59 59 59 58 58 58 57 55 58 60 62 61 61 60 61 62 61 60
59 59 59 59 58 58 59 59 58 58 59 59 60 60 60 60 60 60 59 61 60 59 59 59 58 59 59 60 60 58 58 59 57 56 58 59 59 60 60 60 60 60 59
59 58 58 58 58 58 58 59 58 58 59 59 58 58 60 60 60 60 60 61 60 59 59 59 58 59 60 60 59 59 59 59 58 57 57 58 58 59 58 58 58 58 58
58 58 57 58 58 58 58 58 57 57 57 58 59 60 60 60 60 60 62 61 60 59 59 58 58 60 59 60 59 59 59 58 58 57 56 56 56 57 57 55 55 57 56
58 58 57 58 58 58 58 57 57 57 58 60 61 59 59 58 55 58 61 60 59 59 60 60 60 60 59 59 59 59 59 58 57 56 55 55 55 55 55 55 54 55 55
58 58 59 59 58 58 58 57 57 58 59 61 59 58 57 55 46 52 57 60 60 60 60 60 60 58 56 54 55 55 58 57 56 55 55 54 55 55 55 55 54 53 51
59 59 60 59 58 58 57 57 56 58 60 60 58 56 56 56 46 50 52 60 60 60 59 59 59 58 57 56 52 52 52 51 54 56 55 55 55 55 55 54 54 54 53
59 59 59 58 57 57 57 56 58 60 60 59 56 56 56 54 47 47 51 60 61 60 59 59 58 58 57 57 58 57 57 57 57 56 56 56 56 56 56 55 54 54 53
59 59 58 58 57 57 56 56 57 58 58 57 56 56 57 56 46 47 56 60 59 59 59 59 59 57 48 49 57 56 55 54 51 50 49 48 47 49 53 54 53 51 51
59 58 58 57 56 56 56 56 58 58 58 58 56 56 53 57 46 47 56 60 58 58 57 56 50 53 46 48 57 56 55 55 56 56 55 52 53 52 51 55 53 50 51
59 58 57 56 56 57 57 58 58 58 59 58 56 56 57 56 53 46 51 60 59 58 56 56 53 45 46 47 51 56 55 56 54 56 56 56 56 56 56 56 57 53 51
59 57 57 56 57 57 58 58 59 59 58 56 56 56 56 57 49 45 48 52 54 58 56 55 49 43 44 45 51 44 46 52 56 55 55 54 54 54 55 56 57 57 58
57 57 56 57 58 58 58 58 58 58 58 56 57 56 56 58 55 44 44 46 49 57 57 49 42 42 42 44 43 44 49 56 55 55 54 54 54 55 56 56 56 56 56
56 56 57 57 57 58 58 58 58 58 57 57 56 56 57 58 57 55 53 53 49 51 48 50 48 47 48 47 51 53 55 56 55 55 54 54 54 55 55 56 56 56 55
56 56 57 57 58 58 57 57 58 58 57 58 57 56 56 58 57 53 53 57 57 52 53 55 56 55 54 55 56 56 55 55 55 54 54 53 53 53 54 56 57 56 56
56 56 57 57 57 57 56 52 42 46 48 48 47 54 57 49 43 43 43 43 44 46 56 56 56 56 55 55 55 56 56 54 55 55 54 54 53 52 52 54 55 56 55
56 57 57 56 57 56 56 56 55 49 42 44 42 45 49 46 41 41 41 42 42 49 57 57 57 56 55 55 56 56 55 56 56 55 54 54 54 53 52 52 53 54 54
57 50 57 57 57 56 55 55 55 53 53 53 45 46 42 40 40 40 40 45 54 53 56 56 56 57 57 56 56 55 56 56 56 56 55 55 55 53 54 54 54 55 55
56 56 57 57 57 55 55 53 52 52 53 54 53 47 40 38 38 39 42 57 56 56 56 56 56 56 56 56 56 55 56 57 56 56 56 56 56 56 56 56 56 48 51
57 51 53 57 56 55 54 52 51 51 52 54 55 56 49 50 53 51 52 55 56 56 56 56 56 57 57 57 56 56 57 56 56 57 56 57 57 56 56 56 56 55 55
55 55 52 58 57 56 55 54 53 51 50 51 54 53 44 56 56 56 54 54 55 55 55 56 56 56 56 57 57 57 56 56 56 56 57 56 57 56 57 57 57 57 57
56 55 56 57 57 57 57 56 54 53 51 50 50 50 37 54 56 56 56 57 56 56 56 56 55 56 56 56 57 57 56 56 56 56 56 56 56 56 56 56 56 57 56
53 55 55 55 56 53 56 56 56 55 53 53 51 49 49 53 56 57 57 57 58 58 58 57 57 56 56 58 57 56 56 56 57 57 56 56 55 55 55 55 55 55 55
55 55 54 54 54 54 55 55 56 51 55 55 55 52 50 51 54 57 57 58 58 58 58 58 59 58 58 58 57 57 58 58 57 56 56 55 54 52 54 53 53 54 54
54 55 56 56 56 51 52 52 52 53 53 55 55 55 53 52 52 53 56 57 57 57 58 58 58 58 59 59 58 58 54 44 54 51 57 57 56 57 55 54 54 54 54
47 49 50 51 52 53 54 55 55 55 55 55 54 52 54 55 53 53 54 55 56 56 56 57 57 58 58 58 58 53 45 42 46 42 55 56 55 55 55 55 54 53 53

GFSGL_sfc_dewp_033.txt.gz
Dewpoint
63 63 63 63 63 64 64 64 64 64 64 62 61 62 62 63 64 64 64 63 62 61 61 62 62 62 59 60 60 60 60 61 55 59 62 63 62 63 63 63 63 63 61
62 62 63 63 63 63 63 63 63 63 61 61 61 61 61 61 63 62 62 61 61 60 59 61 60 61 63 63 59 59 59 61 56 59 61 61 60 61 61 61 61 61 61
60 61 62 62 63 63 63 63 62 61 61 61 61 60 59 61 62 62 62 61 61 60 60 60 61 62 62 61 61 61 59 59 59 59 58 60 59 59 59 59 59 59 59
59 59 61 62 62 62 62 61 61 61 60 60 60 60 61 61 61 62 62 62 61 61 60 61 61 61 62 62 61 61 61 59 59 59 57 57 58 59 58 56 55 57 56
57 58 60 61 61 61 61 60 60 60 59 59 60 61 61 59 58 61 62 62 60 59 61 60 61 61 59 60 60 61 61 58 58 58 56 56 55 56 55 56 55 55 56
57 58 59 60 60 61 61 60 59 59 61 61 61 60 59 58 47 52 59 61 60 60 60 61 61 59 57 55 55 56 59 59 58 57 56 55 56 56 56 55 54 54 52
57 58 59 59 59 59 58 59 59 61 62 61 61 59 60 61 47 49 53 62 61 61 61 60 60 59 59 58 52 52 52 52 55 59 57 56 55 57 56 55 55 55 54
57 57 58 58 58 58 58 58 61 62 63 61 61 60 61 58 47 47 51 61 61 61 60 60 59 59 58 58 59 58 58 59 59 57 58 58 58 58 57 56 56 54 54
57 58 58 58 58 58 58 60 62 63 61 61 60 60 61 60 46 47 56 61 61 60 59 59 59 58 49 50 58 57 57 57 51 50 50 48 47 49 54 55 54 53 52
58 58 58 57 57 57 59 60 62 63 62 59 59 60 55 60 46 47 56 60 59 58 57 57 51 54 46 48 58 58 57 56 55 55 53 51 52 51 50 57 55 53 52
58 58 57 57 58 59 60 61 62 62 61 61 60 61 61 59 56 45 51 60 59 58 57 56 53 45 45 47 52 57 56 56 54 55 55 56 55 55 55 57 57 54 51
59 58 57 59 56 58 60 61 62 63 62 61 60 59 59 59 50 46 48 52 54 57 57 55 49 43 44 45 53 45 46 52 56 55 56 55 55 55 56 56 58 57 59
59 58 58 58 58 59 60 62 61 62 60 60 58 58 57 58 55 45 45 46 50 57 57 48 42 42 43 45 44 45 48 57 56 55 55 55 55 56 58 57 57 58 59
59 59 59 58 58 60 59 60 61 61 59 59 58 57 58 59 57 56 55 54 48 51 48 50 48 48 47 47 51 53 57 57 56 55 56 56 56 57 56 55 54 53 51
59 59 59 58 59 59 59 59 61 61 59 59 59 58 58 58 58 54 55 58 57 53 53 57 55 55 55 56 56 56 56 57 56 56 56 56 55 55 55 56 55 54 50
58 57 57 57 58 58 58 57 42 46 45 46 48 54 58 49 45 44 45 44 44 46 56 56 56 55 55 55 55 56 56 55 56 56 56 55 55 55 55 55 53 51 50
58 59 57 56 57 57 57 57 57 51 41 41 43 44 47 47 42 42 42 42 43 48 56 55 55 55 55 56 56 56 55 55 57 55 55 55 55 54 52 52 52 52 53
59 50 57 56 56 57 57 57 56 56 57 59 45 46 40 40 41 40 41 46 55 54 57 57 56 57 57 56 56 56 56 56 56 55 55 55 55 52 51 51 52 53 53
57 55 56 57 57 55 57 55 55 55 54 57 55 48 41 38 39 40 43 57 56 55 56 56 57 56 57 57 57 56 57 57 56 56 56 56 55 54 52 50 49 46 48
56 50 52 57 57 57 56 53 53 54 54 55 58 57 51 51 54 52 57 58 57 57 57 57 57 56 56 56 56 56 56 57 57 56 55 55 55 53 52 52 53 54 55
54 56 50 56 56 56 55 55 53 52 52 54 56 56 45 57 57 57 57 57 57 57 57 57 57 57 56 57 57 57 57 58 57 57 56 55 55 54 56 55 55 55 54
54 54 56 55 56 56 56 56 55 54 54 53 54 53 38 56 57 57 57 57 57 57 57 58 57 57 57 57 57 57 57 57 57 57 57 56 56 56 56 55 55 54 55
55 55 55 55 56 53 57 57 56 56 55 55 54 52 52 55 56 57 57 57 58 58 57 57 57 56 57 57 58 57 56 55 56 56 56 56 55 55 55 54 54 54 55
56 55 55 55 55 56 57 57 57 51 55 56 56 55 53 53 55 56 57 58 58 58 58 58 58 57 57 57 57 57 57 56 56 55 57 55 54 53 54 53 53 54 55
55 56 56 55 53 54 54 54 54 54 54 55 55 56 56 56 55 55 55 56 57 58 58 59 59 59 59 59 58 58 53 41 53 49 56 57 56 56 53 52 53 54 54
46 47 51 52 52 51 51 51 51 52 52 52 53 53 52 52 53 54 54 55 55 55 56 56 57 58 58 58 58 52 43 40 49 41 55 57 56 56 55 56 55 54 55